User: anonymous   Login
Location: Newark
(41.6478°N, 9.0078°E)
Time: 19:32:03
(UTC+00:00)
Language:

QB50P2 - Orbit

View from above orbital plane
View from above orbital plane
View from above satellite
View from above satellite

Ground track
Ground track

The orbit data is extracted from the following two-line orbital elements,

1 40032U 14033Y   20023.50848639  .00000180  00000-0  25368-4 0  9997
2 40032  97.9029 305.6463 0013114  59.5458 300.7052 14.88588051303797
Epoch (UTC): 23 January 2020 12:12:13
Eccentricity: 0.0013114
inclination: 97.9029°
perigee height: 593 km
apogee height: 611 km
right ascension of ascending node: 305.6463°
argument of perigee: 59.5458°
revolutions per day: 14.88588051
mean anomaly at epoch: 300.7052°
orbit number at epoch: 30379

The dashed part of the orbit path shows where the satellite is in the earth's shadow,  

DLR